sat.trackr.live / text

‹ back to catalog

STARLINK-31241

NORAD 59045 · 2024-038Y

PAYLOAD ACTIVE UNKNOWN

§ Identity

Operator
Country
US
Launch date
2024-02-25
Launch site
AFETR
Launch vehicle
Mass (kg)
RCS (m²)

Purposes: comms

External: N2YO · Heavens-Above · Gunter

§ Orbital elements

Epoch: 2026-05-25T04:18:18.423360Z

Period
94.27 min
Inclination
43.0030°
Eccentricity
0.0000960
Mean motion
15.27578606 rev/d
Perigee alt
482.4 km
Apogee alt
483.7 km
Semi-major
6,861.2 km
B*
6.5650e-5
RAAN
311.8250°
Arg perigee
280.6737°
Mean anomaly
79.4007°
Rev number
12,655

§ Raw data

STARLINK-312411 59045U 24038Y   26145.17937990  .00001545  00000+0  65650-4 0  99932 59045  43.0030 311.8250 0000960 280.6737  79.4007 15.27578606126556

JSON: /api/v1/satellites/59045 · /tle

For live sub-satellite position, see the globe view (requires WebGL).

§ Visibility from observer

Set your observer location to see the next 7 days of passes ≥ 10°. The values pass through the URL so the page stays shareable.

No JS? Fill the form by hand. The geolocation button needs JavaScript.